Location: Équennes
(49.7375°N, 1.9622°E)
Time: 01:46:58
(UTC+00:00)

SKYMED 2 - Pass Details

Date: 28 January 2023
Orbit: 621 x 623 km, 97.9° (Epoch: 31 March)

Event Time Altitude Azimuth Distance (km) Brightness Sun altitude
Rises 17:40:23 0° 18° (NNE) 2,920 6.7 -9.9°
Reaches altitude 10° 17:42:40 10° 24° (NNE) 2,008 5.8 -10.2°
Maximum altitude 17:46:54 47° 99° (E) 828 3.8 -10.9°
Drops below altitude 10° 17:51:05 10° 174° (S) 1,992 6.3 -11.5°
Sets 17:53:20 0° 180° (S) 2,893 7.2 -11.9°
